Location: Sungai Bunut
(2.6333°N, 113.7333°E)
Time: 19:05:00
(UTC+00:00)

Meteor 1-31 Rocket - Pass Details

Date: 16 October 2021
Orbit: 519 x 545 km, 97.7° (Epoch: 08 December)

Event Time Altitude Azimuth Distance (km) Brightness Sun altitude
Rises 21:09:43 0° 12° (NNE) 2,629 6.3 -15.4°
Reaches altitude 10° 21:11:48 10° 12° (NNE) 1,743 5.4 -14.9°
Maximum altitude 21:15:34 86° 100° (E) 523 2.7 -14.0°
Drops below altitude 10° 21:19:20 10° 190° (S) 1,750 5.4 -13.0°
Sets 21:21:26 0° 191° (S) 2,641 6.3 -12.5°
